Regional Weather Roundup
Issued by NWS

Home | Current Version | Previous Version | Text Only | Print | Product List | Glossary Off
Versions: 1 2 3 4 5 6 7 8 9 10 11 12 13 14 15 16 17 18 19 20 21 22 23 24 25 26 27

000
ASUS45 KBOU 230506
RWRCO

WEATHER ROUNDUP FOR COLORADO
NATIONAL WEATHER SERVICE DENVER/BOULDER CO
1100 PM MDT TUE APR 22 2014

NOTE: "FAIR" INDICATES FEW OR NO CLOUDS BELOW 12000 FEET WITH NO
SIGNIFICANT WEATHER AND/OR OBSTRUCTIONS TO VISIBILITY.

COZ001>005-013-030-031-230600-
...NORTHWEST COLORADO...

CITY           SKY/WX    TMP DP  RH WIND       PRES   REMARKS
CRAIG          MOCLDY    57  32  38 SW12      29.69F
HAYDEN         MOCLDY    55  30  38 S5        29.75S
MEEKER         CLOUDY    59  30  33 S6        29.70F
MOUNT WERNER   NOT AVBL
STEAMBOAT SPGS MOCLDY    53  29  40 E12       29.73F
WALDEN         CLOUDY    46  30  53 S13       29.79F
$$

COZ006>008-011-230600-
...WEST CENTRAL VALLEYS...

CITY           SKY/WX    TMP DP  RH WIND       PRES   REMARKS
GRAND JUNCTION CLOUDY    70  23  17 SW22G32   29.62S
MONTROSE       CLOUDY    66  24  20 S9        29.74F
EAGLE          CLOUDY    57  36  44 S22G28    29.81S
RIFLE          CLOUDY    68  24  19 SW14G22   29.66F
DELTA          NOT AVBL
NUCLA          NOT AVBL
$$

COZ017>023-064>068-230600-
...SOUTHWEST COLORADO...

CITY           SKY/WX    TMP DP  RH WIND       PRES   REMARKS
DURANGO        CLOUDY    61  19  19 W7        29.87F
CORTEZ         CLEAR     61  24  24 S13       29.84R
PAGOSA SPRINGS CLOUDY    62  17  17 SW13G35   29.93F
TELLURIDE      CLOUDY    54  18  24 S22G37    29.93F
WOLF CREEK PAS CLOUDY    36  21  55 SW22G48   30.12R
$$

COZ009-010-012-014-032>034-037-058>063-230600-
...CENTRAL COLORADO...

CITY           SKY/WX    TMP DP  RH WIND       PRES   REMARKS
ASPEN          MOCLDY    52  33  48 S10       29.84F
BUENA VISTA    PTCLDY    48  32  52 CALM      29.88F
COPPER MTN     MOCLDY    39  27  60 S21       30.05F
BERTHOUD PASS  FAIR      32  23  69 S8        30.06F WCI  25
COTTONWOOD PAS CLOUDY    50  27  40 SW20G26   29.96F
GUNNISON       MOCLDY    46  30  53 N13       29.91F
KREMMLING      MOCLDY    45  32  61 NE3       29.81F
LEADVILLE      MOCLDY    43  27  53 SE10      29.94F
MONARCH PASS   MOCLDY    34  27  75 SW30      30.18F WCI  20
SALIDA         PTCLDY    56  30  36 S6        29.95F
SUNLIGHT       CLOUDY    41  32  70 S3        29.94F
WILKERSON PASS MOCLDY    37  27  65 S9        30.03F
$$

COZ069>075-230600-
...SAN LUIS VALLEY/SANGRE DE CRISTO MOUNTAINS...

CITY           SKY/WX    TMP DP  RH WIND       PRES   REMARKS
ALAMOSA        MOCLDY    52  31  44 SW7       29.92F
LA VETA PASS   CLOUDY    43  28  56 SW14G25   30.02F
SAGUACHE       CLOUDY    50  32  50 SE3       29.92F
$$

COZ035-036-038>040-230600-
...NORTHERN COLORADO FRONT RANGE...

CITY           SKY/WX    TMP DP  RH WIND       PRES   REMARKS
DENVER INTL AP CLOUDY    61  35  37 S16       29.68F
DMNS CITY PARK   N/A     64  34  32 SW8       29.67F
AURORA         MOCLDY    59  34  38 S10       29.71F
FRONT RANGE AP NOT AVBL
ERIE MUNI ARPT CLOUDY    58  40  51 CALM      29.65F
BOULDER MUN AP CLOUDY    61  34  36 SE7       29.66F
CENTENNIAL     CLOUDY    57  34  41 SE8       29.73F
BROOMFIELD     NOT AVBL
FORT COLLINS   CLOUDY    55  37  50 SW3       29.66F
LONGMONT       NOT AVBL
$$

COZ041-046-047-076>085-087-088-230600-
...PIKES PEAK/PALMER DIVIDE AND SOUTHERN FOOTHILLS...

CITY           SKY/WX    TMP DP  RH WIND       PRES   REMARKS
COLO. SPRINGS  CLOUDY    59  33  37 SE10      29.77F
A. F. ACADEMY  CLOUDY    60  29  31 SE6       29.79F
ELLICOTT       NOT AVBL
FALCON         CLOUDY    55  34  44 S5        29.82F
FORT CARSON    CLOUDY    61  32  33 SW6       29.75F
LIMON          MOCLDY    55  41  59 SE10      29.75F
MONUMENT HILL  CLOUDY    50  32  50 SE9       29.81F
TRINIDAD       PTCLDY    62  39  42 S26G38    29.84R
$$

COZ042>045-048>051-090-091-230600-
...NORTHEAST COLORADO...

CITY           SKY/WX    TMP DP  RH WIND       PRES   REMARKS
GREELEY ARPT   CLOUDY    57  37  47 S7        29.64F
AKRON          PTCLDY    62  42  47 S22       29.68F
BURLINGTON     MOCLDY    57  46  66 S22       29.74F
WRAY           MOCLDY    63  46  55 SE22G31   29.69S
STERLING       NOT AVBL
HOLYOKE        NOT AVBL
FORT MORGAN    NOT AVBL
$$

COZ086-089-092>099-230600-
...SOUTHEAST COLORADO...

CITY           SKY/WX    TMP DP  RH WIND       PRES   REMARKS
PUEBLO         CLOUDY    68  35  29 SW21      29.70F
LA JUNTA       MOCLDY    70  39  32 S22G28    29.72F
LAMAR          MOCLDY    63  44  50 S17       29.70F
SPRINGFIELD      N/A     62  42  47 S18       29.82S
$$



USA.gov is the U.S. government's official web portal to all federal, state and local government web resources and services.